Location: Newark
(3.0500°N, 36.0167°E)
Time: 00:58:10
(UTC+00:00)

Transit 4A - All Passes

Search period start: 21 August 2019 00:00
Search period end: 31 August 2019 00:00
Orbit: 863 x 981 km, 66.8° (Epoch: 20 August)

Date Brightness Start Highest point End Pass type
(mag) Time Alt. Az. Time Alt. Az. Time Alt. Az.
21 Aug - 01:08:14 10° NE 01:10:05 11° ENE 01:11:56 10° E visible
21 Aug - 02:50:34 10° NNW 02:56:18 52° WSW 03:01:56 10° S visible
21 Aug - 14:03:19 10° S 14:09:18 48° ESE 14:15:24 10° NE daylight
21 Aug - 15:52:05 10° WSW 15:55:31 15° WNW 15:58:59 10° NW daylight
22 Aug - 01:15:08 10° NNE 01:19:28 21° ENE 01:23:44 10° ESE visible
22 Aug - 03:00:30 10° NW 03:05:33 30° WSW 03:10:32 10° SSW visible
22 Aug - 14:12:19 10° SSW 14:18:35 81° ESE 14:24:59 10° NNE daylight
23 Aug - 01:23:25 10° N 01:28:49 36° ENE 01:34:05 10° SE visible
23 Aug - 03:11:11 10° WNW 03:14:49 17° WSW 03:18:26 10° SSW visible
23 Aug - 12:40:12 10° SE 12:41:51 11° ESE 12:43:31 10° E daylight
23 Aug - 14:21:43 10° SSW 14:27:53 61° WNW 14:34:11 10° N daylight
24 Aug - 01:32:15 10° N 01:38:07 63° ENE 01:43:51 10° SSE visible
24 Aug - 12:46:41 10° SSE 12:51:09 20° ESE 12:55:39 10° ENE daylight
24 Aug - 14:31:32 10° SW 14:37:12 36° WNW 14:42:59 10° N daylight
25 Aug - 01:41:29 10° NNW 01:47:23 75° WSW 01:53:11 10° SSE visible
25 Aug - 12:54:49 10° S 13:00:26 34° ESE 13:06:06 10° NE daylight
25 Aug - 14:41:55 10° WSW 14:46:33 21° WNW 14:51:15 10° NNW daylight
26 Aug - 00:07:25 10° NE 00:10:30 14° ENE 00:13:33 10° E visible
26 Aug - 01:51:07 10° NW 01:56:39 42° WSW 02:02:06 10° S visible
26 Aug - 13:03:33 10° S 13:09:42 58° ESE 13:15:57 10° NNE daylight
26 Aug - 14:53:39 10° W 14:55:57 12° WNW 14:58:16 10° NW daylight
27 Aug - 00:15:04 10° NNE 00:19:52 25° ENE 00:24:35 10° ESE night (unlit)
27 Aug - 02:01:16 10° WNW 02:05:54 24° WSW 02:10:30 10° SSW visible
27 Aug - 13:12:41 10° SSW 13:18:59 84° WNW 13:25:23 10° NNE daylight
28 Aug - 00:23:35 10° N 00:29:11 44° ENE 00:34:41 10° SE night (unlit)
28 Aug - 02:12:28 10° W 02:15:11 13° WSW 02:17:54 10° SW night (unlit)
28 Aug - 11:39:07 10° SE 11:42:15 14° ESE 11:45:24 10° ENE daylight
28 Aug - 13:22:14 10° SW 13:28:17 50° WNW 13:34:27 10° N daylight
29 Aug - 00:32:34 10° NNW 00:38:29 78° ENE 00:44:16 10° SSE night (unlit)
29 Aug - 11:46:33 10° SSE 11:51:32 25° ESE 11:56:34 10° NE daylight
29 Aug - 13:32:14 10° SW 13:37:37 30° WNW 13:43:05 10° N daylight
30 Aug - 00:41:57 10° NNW 00:47:45 61° WSW 00:53:27 10° S night (unlit)
30 Aug - 11:54:57 10° S 12:00:49 42° ESE 12:06:46 10° NE daylight
30 Aug - 13:42:56 10° WSW 13:46:59 18° WNW 13:51:04 10° NNW daylight
30 Aug - 23:07:04 10° NNE 23:10:55 18° ENE 23:14:42 10° ESE night (unlit)
